Location: Claremont
(33.9858°S, 18.4575°E)
Time: 02:48:06
(UTC+00:00)

Cosmos 2239 Rocket - Pass Details

Date: 03 March 2021
Orbit: 953 x 992 km, 82.9° (Epoch: 21 April)

Event Time Altitude Azimuth Distance (km) Brightness Sun altitude
Rises 18:35:39 0° 184° (S) 3,717 7.9 -16.1°
Reaches altitude 10° 18:38:12 10° 181° (S) 2,767 7.1 -16.6°
Maximum altitude 18:44:33 69° 97° (E) 1,063 4.5 -17.8°
Enters shadow 18:50:32 12° 14° (NNE) 2,637 6.4 -19.0°
